Overview Statistics Trail Chart Weather Telemetry Raw packets
 

This is the latest recevied weather packets stored in our database for station/object K7SKM. If no packets are shown the sender has not sent any weather packets the latest 10 day(s).

<< 41 42 43 44 45 46 47 >>
Time Temp. Humidity Pressure Rain* Wind** Luminosity Snow
1788396457 14.44° C 93% 1010 hPa 1.78 mm - 48 W/m² -
1788396170 13.89° C 94% 1010.1 hPa 3.56 mm - 49 W/m² -
1788395848 14.44° C 94% 1009.9 hPa 3.56 mm - 41 W/m² -
1788395543 15° C 95% 1010.1 hPa 3.56 mm - 29 W/m² -
1788395237 15° C 95% 1010 hPa 3.56 mm - 18 W/m² -
1788394932 15.56° C 95% 1009.7 hPa 0 mm - 19 W/m² -
1788394627 15.56° C 94% 1009.4 hPa 0 mm - 12 W/m² -
1788394321 15.56° C 94% 1009.1 hPa 0 mm - 23 W/m² -
1788394016 15.56° C 94% 1009 hPa 0 mm - 28 W/m² -
1788393715 15.56° C 93% 1009.1 hPa 0 mm - 24 W/m² -
1788393409 15.56° C 93% 1009.2 hPa 0 mm - 22 W/m² -
1788393104 15° C 93% 1008.7 hPa 0 mm - 31 W/m² -
1788392804 15.56° C 93% 1009.2 hPa 0 mm - 29 W/m² -
1788392503 15° C 93% 1009.1 hPa 0 mm - 30 W/m² -
1788392198 15.56° C 93% 1009.2 hPa 0 mm - 34 W/m² -
1788391897 15° C 92% 1009.3 hPa 0 mm - 39 W/m² -
1788391597 15° C 92% 1009.3 hPa 0 mm - 33 W/m² -
1788391296 15° C 92% 1009 hPa 0 mm - 34 W/m² -
1788390996 15.56° C 91% 1009 hPa 0 mm - 40 W/m² -
1788390690 15° C 91% 1009 hPa 0 mm - 43 W/m² -
1788390386 15° C 90% 1009.1 hPa 0 mm - 38 W/m² -
1788390085 15° C 90% 1009.1 hPa 1.78 mm - 32 W/m² -
1788389780 15.56° C 89% 1009.4 hPa 1.78 mm - 25 W/m² -
1788389503 15.56° C 89% 1009.4 hPa 1.78 mm - 30 W/m² -
1788389178 15.56° C 88% 1009.3 hPa 3.56 mm - 30 W/m² -

* Rain latest hour (hover to see other rain measurements)
** Current wind speed in m/s (hover to see current wind gust speed)